When you browse on this site, cookies collect data to enhance your experience and personalize the content and advertising you see.
Visit our Privacy Policy to learn more. By continuing to use the site, you agree to this use of cookies and data.
  • En España
  • Lista de países
  • Para 7 días
  • Temperatura del agua
  • Mapa Satelital
  • El tiempo en el mapa
  • Informadores
  • user-avatar
    Iniciar sesión

    Tiempo cada hora Gluhovo

    Hoy, 18 Julio, Jueves

    Tiempo Temperatura Precipitaciones Viento Presión Humedad
    00:00 +13°C° 0 mm 1 mps 734 mmHg 88%
    01:00 +12°C° 0 mm 1 mps 734 mmHg 89%
    02:00 +12°C° 0 mm 1 mps 734 mmHg 92%
    03:00 +12°C° 0.1 mm 1 mps 734 mmHg 93%
    04:00 +12°C° 0.1 mm 1 mps 734 mmHg 94%
    05:00 +12°C° 0.1 mm 2 mps 734 mmHg 95%
    06:00 +13°C° 0.3 mm 2 mps 734 mmHg 94%
    07:00 +13°C° 0.3 mm 2 mps 734 mmHg 93%
    08:00 +13°C° 0.3 mm 3 mps 734 mmHg 93%
    09:00 +14°C° 0.6 mm 3 mps 734 mmHg 91%
    10:00 +14°C° 0.6 mm 4 mps 734 mmHg 90%
    11:00 +15°C° 0.6 mm 4 mps 734 mmHg 88%
    12:00 +14°C° 0.4 mm 5 mps 734 mmHg 89%
    13:00 +14°C° 0.4 mm 6 mps 734 mmHg 89%
    14:00 +14°C° 0.4 mm 6 mps 734 mmHg 89%
    15:00 +13°C° 0.3 mm 6 mps 734 mmHg 91%
    16:00 +13°C° 0.3 mm 5 mps 734 mmHg 93%
    17:00 +12°C° 0.3 mm 4 mps 734 mmHg 94%
    18:00 +12°C° 0.3 mm 4 mps 734 mmHg 95%
    19:00 +12°C° 0.3 mm 4 mps 734 mmHg 96%
    20:00 +12°C° 0.3 mm 5 mps 734 mmHg 96%
    21:00 +12°C° 0.5 mm 4 mps 734 mmHg 97%
    22:00 +12°C° 0.5 mm 4 mps 734 mmHg 97%
    23:00 +12°C° 0.5 mm 4 mps 734 mmHg 97%

    Mañana, 19 Julio, Viernes

    Tiempo Temperatura Precipitaciones Viento Presión Humedad
    00:00 +13°C° 0.7 mm 4 mps 734 mmHg 97%
    01:00 +13°C° 0.7 mm 4 mps 734 mmHg 97%
    02:00 +13°C° 0.7 mm 4 mps 734 mmHg 97%
    03:00 +13°C° 0.2 mm 5 mps 734 mmHg 97%
    04:00 +13°C° 0.2 mm 5 mps 735 mmHg 96%
    05:00 +13°C° 0.2 mm 6 mps 735 mmHg 96%
    06:00 +13°C° 0.3 mm 6 mps 735 mmHg 96%
    07:00 +13°C° 0.3 mm 6 mps 736 mmHg 96%
    08:00 +13°C° 0.3 mm 6 mps 736 mmHg 96%
    09:00 +14°C° 0.3 mm 6 mps 736 mmHg 95%
    10:00 +14°C° 0.3 mm 6 mps 737 mmHg 94%
    11:00 +14°C° 0.3 mm 6 mps 737 mmHg 93%
    12:00 +15°C° 0.1 mm 6 mps 737 mmHg 91%
    13:00 +15°C° 0.1 mm 7 mps 737 mmHg 88%
    14:00 +16°C° 0.1 mm 7 mps 738 mmHg 85%
    15:00 +17°C° 0.1 mm 6 mps 738 mmHg 83%
    16:00 +17°C° 0.1 mm 6 mps 738 mmHg 81%
    17:00 +19°C° 0.1 mm 6 mps 739 mmHg 78%
    18:00 +17°C° 0 mm 5 mps 739 mmHg 83%
    19:00 +15°C° 0 mm 4 mps 739 mmHg 87%
    20:00 +14°C° 0 mm 3 mps 739 mmHg 91%
    21:00 +14°C° 0 mm 3 mps 740 mmHg 92%
    22:00 +13°C° 0 mm 3 mps 740 mmHg 92%
    23:00 +12°C° 0 mm 4 mps 740 mmHg 93%

    Pasado mañana, 20 Julio, Sábado

    Tiempo Temperatura Precipitaciones Viento Presión Humedad
    00:00 +12°C° 0 mm 4 mps 740 mmHg 93%
    01:00 +12°C° 0 mm 4 mps 740 mmHg 93%
    02:00 +12°C° 0 mm 4 mps 740 mmHg 92%
    03:00 +12°C° 0 mm 4 mps 741 mmHg 92%
    04:00 +12°C° 0 mm 4 mps 741 mmHg 92%
    05:00 +12°C° 0 mm 4 mps 741 mmHg 91%
    06:00 +14°C° 0 mm 4 mps 742 mmHg 88%
    07:00 +15°C° 0 mm 4 mps 742 mmHg 85%
    08:00 +17°C° 0 mm 4 mps 742 mmHg 82%
    09:00 +18°C° 0 mm 4 mps 742 mmHg 78%
    10:00 +20°C° 0 mm 5 mps 743 mmHg 74%
    11:00 +21°C° 0 mm 5 mps 743 mmHg 70%
    12:00 +21°C° 0 mm 5 mps 743 mmHg 68%
    13:00 +22°C° 0 mm 5 mps 743 mmHg 66%
    14:00 +22°C° 0 mm 6 mps 743 mmHg 64%
    15:00 +22°C° 0 mm 5 mps 743 mmHg 67%
    16:00 +21°C° 0 mm 5 mps 744 mmHg 69%
    17:00 +21°C° 0 mm 4 mps 744 mmHg 72%
    18:00 +20°C° 0 mm 4 mps 744 mmHg 76%
    19:00 +18°C° 0 mm 3 mps 744 mmHg 80%
    20:00 +17°C° 0 mm 3 mps 744 mmHg 85%
    21:00 +16°C° 0 mm 3 mps 744 mmHg 86%
    22:00 +14°C° 0 mm 3 mps 744 mmHg 87%
    23:00 +13°C° 0 mm 3 mps 744 mmHg 88%

    21 Julio, Domingo

    Tiempo Temperatura Precipitaciones Viento Presión Humedad
    00:00 +13°C° 0 mm 3 mps 745 mmHg 88%
    01:00 +13°C° 0 mm 3 mps 745 mmHg 88%
    02:00 +13°C° 0 mm 2 mps 745 mmHg 88%
    03:00 +13°C° 0 mm 2 mps 745 mmHg 88%
    04:00 +13°C° 0 mm 2 mps 745 mmHg 88%
    05:00 +13°C° 0 mm 2 mps 745 mmHg 88%
    06:00 +15°C° 0 mm 2 mps 745 mmHg 83%
    07:00 +17°C° 0 mm 2 mps 745 mmHg 79%
    08:00 +19°C° 0 mm 2 mps 745 mmHg 75%
    09:00 +20°C° 0 mm 2 mps 745 mmHg 71%
    10:00 +21°C° 0 mm 3 mps 745 mmHg 67%
    11:00 +24°C° 0 mm 3 mps 745 mmHg 63%
    12:00 +24°C° 0 mm 3 mps 745 mmHg 62%
    13:00 +24°C° 0 mm 3 mps 745 mmHg 61%
    14:00 +25°C° 0 mm 3 mps 745 mmHg 60%
    15:00 +25°C° 0 mm 2 mps 745 mmHg 63%
    16:00 +24°C° 0 mm 2 mps 745 mmHg 66%
    17:00 +24°C° 0 mm 2 mps 744 mmHg 68%
    18:00 +23°C° 0 mm 2 mps 744 mmHg 73%
    19:00 +21°C° 0 mm 1 mps 744 mmHg 78%
    20:00 +19°C° 0 mm 1 mps 744 mmHg 83%
    21:00 +18°C° 0 mm 1 mps 744 mmHg 85%
    22:00 +18°C° 0 mm 1 mps 744 mmHg 86%
    23:00 +16°C° 0 mm 1 mps 744 mmHg 87%

    22 Julio, Lunes

    Tiempo Temperatura Precipitaciones Viento Presión Humedad
    00:00 +16°C° 0 mm 1 mps 744 mmHg 89%
    01:00 +16°C° 0 mm 2 mps 743 mmHg 90%
    02:00 +15°C° 0 mm 2 mps 743 mmHg 91%
    03:00 +15°C° 0 mm 2 mps 743 mmHg 91%
    04:00 +15°C° 0 mm 2 mps 743 mmHg 91%
    05:00 +15°C° 0 mm 2 mps 742 mmHg 91%
    06:00 +17°C° 0 mm 2 mps 742 mmHg 88%
    07:00 +18°C° 0 mm 2 mps 742 mmHg 86%
    08:00 +20°C° 0 mm 2 mps 742 mmHg 83%
    09:00 +20°C° 0.6 mm 2 mps 742 mmHg 83%
    10:00 +20°C° 0.6 mm 2 mps 742 mmHg 83%
    11:00 +21°C° 0.6 mm 2 mps 742 mmHg 83%
    12:00 +20°C° 0.3 mm 2 mps 742 mmHg 85%
    13:00 +21°C° 0.3 mm 1 mps 742 mmHg 86%
    14:00 +21°C° 0.3 mm 1 mps 742 mmHg 87%
    15:00 +20°C° 0.1 mm 1 mps 742 mmHg 88%
    16:00 +20°C° 0.1 mm 1 mps 742 mmHg 90%
    17:00 +19°C° 0.1 mm 1 mps 742 mmHg 91%
    18:00 +19°C° 0.1 mm 1 mps 742 mmHg 91%
    19:00 +19°C° 0.1 mm 1 mps 742 mmHg 92%
    20:00 +18°C° 0.1 mm 1 mps 742 mmHg 92%
    21:00 +18°C° 0.1 mm 1 mps 742 mmHg 93%
    22:00 +18°C° 0.1 mm 1 mps 742 mmHg 93%
    23:00 +18°C° 0.1 mm 1 mps 742 mmHg 94%

    23 Julio, Martes

    Tiempo Temperatura Precipitaciones Viento Presión Humedad
    00:00 +16°C° 0 mm 1 mps 742 mmHg 94%
    01:00 +16°C° 0 mm 1 mps 742 mmHg 94%
    02:00 +15°C° 0 mm 1 mps 742 mmHg 94%
    03:00 +15°C° 0 mm 2 mps 742 mmHg 95%
    04:00 +15°C° 0 mm 2 mps 742 mmHg 96%
    05:00 +15°C° 0 mm 2 mps 742 mmHg 96%
    06:00 +17°C° 0 mm 2 mps 742 mmHg 93%
    07:00 +18°C° 0 mm 2 mps 743 mmHg 89%
    08:00 +20°C° 0 mm 2 mps 743 mmHg 85%
    09:00 +21°C° 0 mm 3 mps 743 mmHg 78%
    10:00 +22°C° 0 mm 3 mps 743 mmHg 70%
    11:00 +24°C° 0 mm 3 mps 743 mmHg 63%
    12:00 +25°C° 0 mm 3 mps 743 mmHg 61%
    13:00 +25°C° 0 mm 4 mps 743 mmHg 59%
    14:00 +25°C° 0 mm 4 mps 743 mmHg 57%
    15:00 +25°C° 0 mm 3 mps 743 mmHg 61%
    16:00 +24°C° 0 mm 3 mps 743 mmHg 65%
    17:00 +24°C° 0 mm 3 mps 743 mmHg 69%
    18:00 +21°C° 0 mm 3 mps 743 mmHg 71%
    19:00 +19°C° 0 mm 3 mps 743 mmHg 72%
    20:00 +17°C° 0 mm 3 mps 743 mmHg 73%
    21:00 +16°C° 0 mm 3 mps 743 mmHg 75%
    22:00 +16°C° 0 mm 3 mps 743 mmHg 77%
    23:00 +14°C° 0 mm 3 mps 743 mmHg 79%
    Mostrar más